TimeEDT,TemperatureF,Dew PointF,Humidity,Sea Level PressureIn,VisibilityMPH,Wind Direction,Wind SpeedMPH,Gust SpeedMPH,PrecipitationIn,Events,Conditions,WindDirDegrees,DateUTC
12:53 AM,66.9,61.0,81,30.05,10.0,North,3.5,-,N/A,,Clear,360,2012-08-28 04:53:00
1:53 AM,64.0,61.0,90,30.05,10.0,Calm,Calm,-,N/A,,Clear,0,2012-08-28 05:53:00
2:53 AM,62.1,60.1,93,30.05,10.0,Calm,Calm,-,N/A,,Clear,0,2012-08-28 06:53:00
3:53 AM,61.0,59.0,93,30.04,7.0,Calm,Calm,-,N/A,,Clear,0,2012-08-28 07:53:00
4:53 AM,59.0,57.0,93,30.05,6.0,Calm,Calm,-,N/A,,Clear,0,2012-08-28 08:53:00
5:53 AM,60.1,57.9,93,30.05,8.0,Calm,Calm,-,N/A,,Clear,0,2012-08-28 09:53:00
6:53 AM,59.0,57.9,96,30.06,10.0,Calm,Calm,-,N/A,,Clear,0,2012-08-28 10:53:00
7:53 AM,60.1,57.9,93,30.08,10.0,Calm,Calm,-,N/A,,Clear,0,2012-08-28 11:53:00
8:53 AM,69.1,59.0,70,30.09,10.0,North,3.5,-,N/A,,Clear,360,2012-08-28 12:53:00
9:53 AM,73.0,59.0,61,30.09,10.0,NNE,8.1,-,N/A,,Clear,20,2012-08-28 13:53:00
10:53 AM,77.0,57.9,52,30.09,10.0,Variable,6.9,-,N/A,,Clear,0,2012-08-28 14:53:00
11:53 AM,80.1,57.0,45,30.09,10.0,NE,9.2,-,N/A,,Clear,50,2012-08-28 15:53:00
12:53 PM,82.0,57.0,42,30.08,10.0,NE,9.2,-,N/A,,Clear,50,2012-08-28 16:53:00
1:53 PM,84.0,55.0,37,30.06,10.0,North,6.9,18.4,N/A,,Clear,10,2012-08-28 17:53:00
2:53 PM,84.0,55.9,38,30.05,10.0,North,10.4,17.3,N/A,,Clear,360,2012-08-28 18:53:00
3:53 PM,84.9,55.0,36,30.03,10.0,NE,11.5,-,N/A,,Clear,50,2012-08-28 19:53:00
4:53 PM,84.9,55.0,36,30.01,10.0,NE,13.8,20.7,N/A,,Clear,40,2012-08-28 20:53:00
5:53 PM,86.0,55.0,35,30.01,10.0,NNE,12.7,-,N/A,,Clear,20,2012-08-28 21:53:00
6:53 PM,82.9,54.0,37,30.01,10.0,NE,6.9,-,N/A,,Clear,40,2012-08-28 22:53:00
7:53 PM,79.0,57.0,47,30.00,10.0,NNE,5.8,-,N/A,,Clear,30,2012-08-28 23:53:00
8:53 PM,72.0,59.0,64,30.01,10.0,Calm,Calm,-,N/A,,Clear,0,2012-08-29 00:53:00
9:53 PM,66.0,60.1,81,30.03,10.0,Calm,Calm,-,N/A,,Clear,0,2012-08-29 01:53:00
10:53 PM,72.0,57.9,61,30.02,10.0,NE,4.6,-,N/A,,Clear,50,2012-08-29 02:53:00
11:53 PM,62.1,59.0,90,30.03,10.0,Calm,Calm,-,N/A,,Clear,0,2012-08-29 03:53:00